Погода в Карагасе

Россия / Республика Дагестан     44°15′06″N   45°22′55″E
темп.,
°C
ветер,
м/с
пор.,
м/с
влажн.,
%
обл.,
%
осадки,
мм/ч
давл.,
гПа
погр.,
м
11 мая, вт
вт1100:00+9зюз476511 0.0 1020143
03:00+7юз227092 0.0 101912
06:00+10всв226123 0.0 102082
09:00+14в61040100 0.0 10181455
12:00+17вюв101039100 0.0 10162375
15:00+18вюв10103880 0.0 10162101
18:00+15вюв710430 0.0 1016874
21:00+12в48610 0.0 1017159
12 мая, ср
ср1200:00+10вюв33720 0.0 101638
03:00+9в22800 0.0 101610
06:00+11сз12740 0.0 101668
09:00+16всв236428 0.0 1016987
12:00+20в334614 0.0 10161528
15:00+22в33395 0.0 10151729
18:00+21юв22430 0.0 1015264
21:00+17вюв6106492 0.0 1015256
13 мая, чт
чт1300:00+14юв35720 0.0 1015104
03:00+13юв33750 0.0 101453
06:00+14вюв34730 0.0 1015150
09:00+19в44550 0.0 1015631
12:00+24в44420 0.0 1014982
15:00+27в453511 0.0 10131233
18:00+24всв7952100 0.0 1013369
21:00+19в486464 0.0 1015173
14 мая, пт
пт1400:00+15вюв467293 0.0 1014118
03:00+14в368099 0.0 1014134
06:00+15вюв3482100 0.0 1014182
09:00+21вюв346197 0.0 1014448
12:00+28вюв67435 0.0 1013980
15:00+30вюв911314 0.0 10111183
18:00+25вюв813410 0.0 1012622
21:00+20вюв615480 0.0 1012427
15 мая, сб
сб1500:00+19вюв614500 0.0 1011369
03:00+17вюв49470 0.0 1011184
06:00+18вюв38514 0.0 1012256
09:00+24юв22495 0.0 1013503
12:00+29юв224126 0.1 1012960
15:00+31вюв44335 0.2 10121776
18:00+27вюв7112895 0.2 1012444
21:00+21вюв4644100 0.8 1014117